Date,TemperatureHighF,TemperatureAvgF,TemperatureLowF,DewpointHighF,DewpointAvgF,DewpointLowF,HumidityHigh,HumidityAvg,HumidityLow,PressureMaxIn,PressureMinIn,WindSpeedMaxMPH,WindSpeedAvgMPH,GustSpeedMaxMPH,PrecipitationSumIn
2013-1-1,38,32,24,34,27,16,95,81,65,29.99,29.83,11,6,25,0.02
2013-1-2,32,24,19,21,17,12,96,74,57,30.15,29.98,11,4,20,0.00
2013-1-3,24,19,15,22,16,8,100,88,58,30.21,30.11,10,3,18,0.01
2013-1-4,37,30,17,33,28,17,100,91,67,30.11,29.94,11,4,20,0.00
2013-1-5,41,31,20,31,26,20,100,84,59,30.38,29.96,10,2,22,0.00
2013-1-6,41,31,20,39,31,20,100,97,88,30.33,30.04,8,1,14,0.00
2013-1-7,44,31,21,39,30,21,100,95,79,30.52,30.07,9,1,17,0.00
2013-1-8,46,36,23,40,34,23,100,92,76,30.50,30.38,12,3,23,0.00
2013-1-9,46,37,25,44,36,25,100,95,87,30.51,30.12,11,3,25,0.00
2013-1-10,42,40,39,39,37,35,93,90,81,30.20,30.16,12,6,20,0.00
2013-1-11,39,39,39,38,37,37,95,93,93,30.38,30.33,18,3,18,0.19
2013-1-12,47,41,34,43,38,33,96,91,82,30.34,30.21,8,2,12,0.03
2013-1-13,51,45,39,47,42,36,95,88,78,30.27,30.17,8,1,12,0.01
2013-1-14,54,48,42,51,43,37,92,83,75,30.35,30.03,9,2,20,0.00
2013-1-15,43,39,37,39,34,32,91,82,74,30.38,30.27,3,0,9,0.13
2013-1-16,42,39,36,38,35,32,91,85,81,30.31,29.84,13,3,21,0.44
2013-1-17,42,36,31,38,33,29,93,89,79,30.16,29.94,8,2,17,0.00
2013-1-18,31,22,16,28,14,5,99,74,48,30.58,30.10,10,3,27,0.01
2013-1-19,46,36,13,42,34,9,100,89,75,30.54,30.05,14,6,29,0.22
2013-1-20,53,44,29,46,36,15,87,74,54,30.04,29.68,16,7,27,0.00
2013-1-21,32,27,23,26,16,7,100,65,43,30.20,29.86,10,2,20,0.00
2013-1-22,28,23,16,26,16,4,99,77,45,30.13,29.78,10,4,22,0.01
2013-1-23,17,13,10,8,2,-2,81,61,52,30.22,30.11,12,5,28,0.00
2013-1-24,19,14,8,12,5,0,96,71,49,30.25,30.11,13,5,27,0.00
2013-1-25,24,17,11,14,7,4,88,65,47,30.38,30.14,10,3,20,0.00
2013-1-26,26,21,17,25,17,6,100,87,57,30.26,30.06,8,3,20,0.00
2013-1-27,29,22,16,15,12,8,87,66,50,30.54,30.26,12,4,25,0.01
2013-1-28,32,26,17,30,18,8,100,74,44,30.54,30.10,8,1,12,0.00
2013-1-29,38,35,31,34,31,28,90,86,80,30.32,30.09,6,0,9,0.05
2013-1-30,59,50,37,46,41,32,90,71,58,30.26,29.68,18,8,35,0.04
2013-1-31,57,48,32,47,38,19,87,70,54,29.70,29.19,23,10,44,0.31
2013-2-1,35,29,23,22,15,8,73,55,43,30.15,29.70,14,6,25,0.00
2013-2-2,30,25,19,28,14,5,98,64,38,30.34,30.14,11,4,20,0.00
2013-2-3,35,27,20,32,26,20,100,93,85,30.16,29.74,8,1,17,0.06
2013-2-4,33,26,23,24,17,9,98,71,46,30.04,29.76,12,6,22,0.04
2013-2-5,31,25,23,27,20,12,100,82,62,30.13,30.01,8,2,16,0.00
2013-2-6,39,32,27,35,27,18,90,83,68,30.36,29.98,9,2,15,0.01
2013-2-7,29,25,20,28,18,9,100,74,50,30.62,30.36,8,2,16,0.00
2013-2-8,35,31,28,33,29,27,99,93,81,30.58,29.42,19,10,40,0.34
2013-2-9,31,20,19,30,18,16,95,91,88,30.15,29.42,16,7,35,0.00
2013-2-10,30,23,16,28,22,16,100,97,80,30.48,30.15,10,3,20,0.00
2013-2-11,47,34,16,42,29,16,100,84,68,30.46,29.69,15,4,26,0.40
2013-2-12,43,37,32,38,32,24,91,83,63,29.97,29.68,11,5,20,0.00
2013-2-13,41,33,26,34,28,24,98,84,57,29.96,29.75,7,2,12,0.00
2013-2-14,42,33,27,36,28,25,98,83,63,30.13,29.77,5,0,12,0.24
2013-2-15,48,38,29,43,33,25,90,83,65,30.14,30.03,12,3,20,0.00
2013-2-16,43,36,27,39,31,24,88,83,64,30.04,29.71,10,2,20,0.00
2013-2-17,34,24,17,30,20,9,100,86,69,29.72,29.34,15,8,29,0.00
2013-2-18,31,23,16,14,11,6,88,61,41,30.24,29.69,14,9,28,0.01
2013-2-19,47,37,24,39,28,12,92,72,50,30.25,29.68,17,6,26,0.92
2013-2-20,44,34,26,33,24,14,88,68,55,29.87,29.62,12,6,22,0.04
2013-2-21,35,28,25,33,20,14,98,73,52,30.14,29.86,13,6,22,0.00
2013-2-22,38,34,32,33,30,26,98,86,66,30.45,30.14,11,2,23,0.00
2013-2-23,40,35,27,37,31,25,97,87,66,30.42,29.98,11,5,17,0.19
2013-2-24,43,38,33,35,30,25,76,72,69,29.98,29.64,10,5,21,1.64
2013-2-25,42,33,24,35,27,22,98,79,57,30.33,29.90,8,2,18,0.08
2013-2-26,44,33,22,34,28,18,93,80,51,30.42,30.23,10,3,14,0.00
2013-2-27,44,41,39,34,29,26,82,62,55,30.23,29.65,18,10,29,0.52
2013-2-28,41,38,34,30,25,20,67,59,47,29.74,29.58,9,1,14,0.00
2013-3-1,39,36,32,32,25,18,80,65,51,29.76,29.57,7,2,20,0.03
2013-3-2,43,36,33,38,29,20,86,75,58,29.77,29.68,6,1,13,0.00
2013-3-3,42,36,33,37,29,24,85,76,67,29.71,29.64,6,1,13,0.00
2013-3-4,42,34,31,33,27,22,91,76,65,29.76,29.63,9,5,21,0.03
2013-3-5,45,36,31,38,29,25,86,76,57,30.12,29.76,8,3,18,0.03
2013-3-6,43,37,33,37,28,23,81,69,56,30.16,30.02,12,7,28,0.03
2013-3-7,37,36,34,27,22,19,67,56,51,30.02,29.92,14,8,32,1.26
2013-3-8,38,35,33,31,20,13,76,56,37,30.14,29.90,12,7,36,0.98
2013-3-9,40,36,33,32,27,22,76,70,61,30.41,30.13,10,4,32,0.00
2013-3-10,43,37,33,37,29,22,82,72,62,30.50,30.39,5,2,13,0.00
2013-3-11,50,40,33,45,29,19,87,65,41,30.44,30.30,8,3,14,0.00
2013-3-12,51,47,41,30,18,7,46,32,17,30.30,29.88,14,8,24,0.24
2013-3-13,52,45,37,42,20,-12,88,47,10,29.91,29.80,13,3,23,0.65
2013-3-14,41,33,25,32,24,15,85,71,51,29.96,29.83,12,4,20,0.00
2013-3-15,39,29,21,33,19,10,91,67,34,30.06,29.89,10,6,24,0.00
2013-3-16,39,33,27,33,23,14,93,68,42,30.26,29.92,12,3,24,0.00
2013-3-17,39,31,23,30,18,9,93,62,37,30.77,30.25,9,2,24,0.00
2013-3-18,38,28,21,27,18,8,93,65,42,30.97,30.77,8,3,13,0.00
2013-3-19,41,35,28,9,-16,-31,43,12,4,30.84,30.12,15,10,27,0.85
2013-3-20,41,32,27,32,12,-50,90,54,2,30.58,30.25,10,5,24,0.00
2013-3-21,44,33,26,35,15,-29,86,51,6,30.59,30.43,7,1,16,0.01
2013-3-22,37,32,28,28,-22,-61,72,29,1,30.90,30.43,10,2,18,0.44
2013-3-23,44,35,29,32,25,18,82,67,46,31.20,30.87,10,6,20,0.04
2013-3-24,46,35,27,33,28,17,93,76,52,31.33,29.83,8,3,20,0.00
2013-3-25,49,36,27,39,22,-14,88,61,9,29.84,29.54,9,4,20,0.00
2013-3-26,46,38,33,35,28,14,90,69,44,29.86,29.54,10,4,22,0.05
2013-3-27,52,41,32,40,29,21,90,65,38,29.93,29.83,7,2,17,0.00
2013-3-28,49,41,36,42,25,-8,87,57,12,30.11,29.91,12,2,20,0.10
2013-3-29,55,44,33,45,33,5,87,66,23,30.14,30.07,8,1,12,0.00
2013-3-30,54,43,34,46,31,19,88,62,45,30.20,30.11,7,1,12,0.00
2013-3-31,59,44,29,42,25,-13,89,50,8,30.24,29.90,14,3,21,0.02
2013-4-1,57,47,37,100,25,-51,75,39,1,29.90,29.66,16,7,27,0.16
2013-4-2,44,36,30,24,18,11,60,47,34,30.15,29.88,14,6,26,0.00
2013-4-3,47,38,31,21,18,12,63,46,32,30.44,30.14,14,7,24,0.00
2013-4-4,50,39,32,34,24,16,87,56,31,31.70,30.44,14,5,22,0.00
2013-4-5,42,38,38,35,31,31,77,75,73,31.67,30.22,9,5,20,0.00
2013-4-6,43,36,29,33,21,9,92,56,27,31.15,29.25,12,4,25,0.00
2013-4-7,53,41,26,100,25,-46,89,52,4,29.74,28.38,17,5,25,0.00
2013-4-8,62,52,45,52,30,-29,87,52,3,29.64,27.05,12,4,24,0.01
2013-4-9,67,52,42,100,38,-46,87,51,1,28.29,28.03,11,4,18,0.13
2013-4-10,57,48,43,100,24,-50,66,34,1,28.19,28.05,10,3,12,0.23
2013-4-11,52,46,43,100,53,-51,67,25,1,28.32,27.98,8,2,14,0.03
2013-4-12,44,42,38,100,48,-54,76,38,1,28.35,27.83,18,7,27,0.72
2013-4-13,47,41,36,100,54,-54,52,12,1,28.14,27.83,10,2,23,0.06
2013-4-14,52,45,38,100,60,-56,87,42,1,28.37,28.11,8,1,13,0.01
2013-4-15,57,45,36,50,24,-34,84,51,3,28.63,28.37,10,2,14,0.00
2013-4-16,60,48,36,100,59,-56,83,39,1,28.63,28.31,16,6,25,0.00
2013-4-17,63,53,40,100,46,-47,84,36,1,28.52,28.26,13,3,24,0.04
2013-4-18,59,47,36,100,36,-54,82,32,1,30.09,28.51,14,5,20,0.00
2013-4-19,69,61,49,100,100,-48,0,0,100,29.66,29.31,19,8,35,0.00
2013-4-20,65,53,42,100,79,-52,51,6,1,29.49,28.12,19,5,36,0.29
2013-4-21,52,43,35,38,31,16,89,65,44,28.87,28.39,9,3,20,0.00
2013-4-22,55,42,32,100,29,-57,87,57,1,28.93,28.75,11,5,17,0.00
2013-4-23,45,44,42,100,85,-52,44,4,1,28.75,28.15,9,5,20,1.03
2013-4-24,57,48,43,100,88,-47,8,1,2,28.15,27.97,12,5,24,0.27
2013-4-25,58,51,41,100,73,-52,83,22,1,28.43,28.09,15,3,23,0.04
2013-4-26,59,47,38,100,69,-52,81,24,1,28.61,28.43,6,2,10,0.00
2013-4-27,62,48,36,100,64,-56,85,30,2,28.61,28.52,9,1,10,0.00
2013-4-28,66,50,36,100,64,-56,82,31,1,28.55,28.46,11,2,15,0.00
2013-4-29,67,52,40,100,61,-52,84,34,1,28.50,28.44,11,2,15,0.00
2013-4-30,67,50,37,100,48,-56,83,34,1,28.56,28.45,10,2,13,0.00
2013-5-1,61,50,41,100,54,-53,57,14,1,28.67,28.55,8,2,10,0.00
2013-5-2,71,51,40,100,77,-54,84,21,1,28.65,28.58,9,2,13,0.00
2013-5-3,55,46,38,100,63,-55,52,11,1,28.67,28.55,9,2,17,0.00
2013-5-4,59,47,40,100,62,-54,78,31,1,28.55,28.50,9,2,15,0.00
2013-5-5,60,48,39,100,56,-54,76,29,1,28.50,28.46,9,3,12,0.00
2013-5-6,59,49,40,100,72,-54,51,7,1,28.49,28.39,10,2,12,0.00
2013-5-7,71,58,47,100,82,-49,69,15,1,28.40,28.34,11,2,14,0.00
2013-5-8,69,59,54,100,93,-38,15,1,1,28.42,28.24,11,4,17,0.14
2013-5-9,70,60,53,100,100,-45,7,0,7,28.24,28.08,10,2,12,0.06
2013-5-10,69,60,53,100,76,-42,73,13,1,28.16,28.06,7,2,12,0.00
2013-5-11,67,61,57,100,100,-31,0,0,100,28.14,27.93,19,5,23,0.44
2013-5-12,64,60,52,100,85,-45,49,3,1,27.98,27.78,11,4,20,0.22
2013-5-13,61,53,47,48,41,23,80,65,33,28.17,27.98,13,4,20,0.01
2013-5-14,60,51,46,47,40,13,81,67,26,28.21,28.13,10,2,20,0.00
2013-5-15,67,55,48,100,52,-45,80,48,1,28.24,27.87,15,5,24,0.00
2013-5-16,77,64,54,100,70,-45,79,36,1,27.96,27.83,9,2,16,0.00
2013-5-17,68,58,48,100,49,-49,79,51,1,28.40,27.95,9,2,20,0.00
2013-5-18,71,58,46,100,72,-44,79,28,1,28.50,28.40,7,2,12,0.00
2013-5-19,74,61,51,100,72,-47,78,34,1,28.54,28.45,9,2,15,0.02
2013-5-20,74,64,56,100,100,-24,0,0,100,28.45,28.12,9,3,16,0.48
2013-5-21,77,63,55,100,100,-25,0,0,100,28.16,28.06,10,2,15,0.00
2013-5-22,67,58,52,100,100,-27,0,0,100,28.15,28.07,10,2,16,0.00
2013-5-23,73,66,61,100,100,-21,0,0,100,28.14,28.08,14,6,25,0.69
2013-5-24,65,63,56,100,100,-24,0,0,100,28.08,27.90,17,5,30,1.76
2013-5-25,57,52,45,100,100,-32,0,0,100,27.92,27.84,8,2,17,0.10
2013-5-26,55,48,42,100,100,-34,0,0,100,28.24,27.88,10,4,18,0.01
2013-5-27,67,56,48,100,79,-35,69,20,8,28.35,28.24,7,2,13,0.00
2013-5-28,68,58,47,100,81,-38,69,14,1,28.43,28.35,8,2,12,0.00
2013-5-29,65,60,56,100,100,-24,0,0,100,28.42,28.20,12,4,24,0.74
2013-5-30,80,69,61,100,100,-21,0,0,100,28.27,28.20,9,1,17,0.09
2013-5-31,85,73,63,100,82,-36,65,16,1,28.28,28.16,9,2,18,0.00
2013-6-1,84,73,66,100,89,-38,35,3,1,28.20,28.12,10,4,20,0.00
2013-6-2,77,69,64,100,100,-39,0,0,100,28.14,28.04,14,5,23,0.00
2013-6-3,67,65,63,100,100,100,0,0,100,28.06,27.99,10,4,16,1.93
2013-6-4,66,59,52,100,88,-38,57,6,6,28.26,27.98,7,2,16,0.00
2013-6-5,66,57,50,100,78,-46,64,8,1,28.38,28.26,9,1,10,0.00
2013-6-6,67,59,52,100,64,-46,17,2,1,28.39,28.29,9,2,13,0.00
2013-6-7,66,57,55,8,1,-1,10,10,9,28.29,27.95,12,3,20,0.92
2013-6-8,68,64,58,100,35,-13,9,3,5,28.18,27.75,15,4,24,0.25
2013-6-9,71,65,59,100,100,-8,0,0,100,28.34,28.18,6,1,10,0.00
2013-6-10,65,61,57,100,100,-10,0,0,100,28.40,28.20,6,1,10,0.18
2013-6-11,70,62,56,100,100,-10,0,0,100,28.21,27.72,9,2,16,0.66
2013-6-12,65,60,55,100,100,-11,0,0,100,27.96,27.74,8,1,23,0.01
2013-6-13,61,57,54,100,100,100,0,0,100,28.00,27.82,4,0,10,0.10
2013-6-14,58,54,52,100,100,-13,0,0,100,27.93,27.74,8,2,23,0.72
2013-6-15,68,61,53,100,83,-38,74,21,3,28.13,27.92,7,1,13,0.01
2013-6-16,73,64,57,100,81,-38,73,18,7,28.13,27.95,11,2,20,0.00
2013-6-17,78,69,63,100,84,-39,56,11,3,28.11,27.97,9,2,20,0.00
2013-6-18,71,64,60,100,100,-41,0,0,100,28.13,28.06,5,0,9,0.01
2013-6-19,68,61,55,100,73,-43,69,20,1,28.34,28.04,7,1,17,0.02
2013-6-20,72,63,54,100,71,-20,76,38,31,28.48,28.34,10,2,16,0.00
2013-6-21,74,67,60,65,56,37,78,68,40,28.47,28.41,8,2,18,0.00
2013-6-22,77,68,63,100,63,-38,79,53,1,28.44,28.36,10,2,15,0.00
2013-6-23,78,72,65,100,82,-38,54,10,2,28.38,28.25,11,3,20,0.00
2013-6-24,84,76,68,100,76,-36,18,2,1,28.25,28.08,6,2,12,0.01
2013-6-25,85,75,68,100,78,-36,68,19,1,28.11,27.96,7,1,16,0.00
2013-6-26,81,74,67,100,87,-34,51,5,1,28.05,27.93,5,0,12,0.00
2013-6-27,70,66,64,100,96,-26,2,0,2,28.06,27.96,6,0,7,0.00
2013-6-28,71,69,64,100,99,-26,2,0,2,27.96,27.77,14,4,26,0.15
2013-6-29,69,69,67,100,98,-24,2,0,2,27.84,27.77,8,3,14,0.01
2013-7-6,77,76,76,100,96,-18,2,0,2,28.21,28.20,1,0,12,0.01
2013-7-7,87,76,71,100,77,-32,69,13,2,28.22,28.14,3,0,7,0.00
2013-7-8,84,76,70,100,85,-32,67,19,1,28.25,28.14,7,0,13,0.00
2013-7-9,73,71,70,100,100,-15,0,0,100,28.30,28.24,3,0,5,0.00
2013-7-10,79,74,70,100,93,-15,3,0,3,28.28,28.05,9,2,18,0.00
2013-7-11,77,74,72,100,98,-12,3,0,3,28.11,28.02,6,1,10,0.01
2013-7-12,72,69,67,100,97,-17,3,0,3,28.34,28.11,4,1,17,0.00
2013-7-13,72,70,69,100,100,-16,0,0,100,28.51,28.49,4,1,7,0.01
2013-7-14,81,74,70,100,99,-15,3,0,3,28.50,28.40,3,0,6,0.01
2013-7-15,81,76,72,100,96,-33,24,0,1,28.40,28.31,4,0,5,0.00
2013-7-16,83,76,70,100,75,-34,66,20,1,28.37,28.28,4,0,9,0.00
2013-7-17,82,74,68,100,70,-31,67,24,1,28.40,28.25,7,1,10,0.00
2013-7-18,83,77,74,100,70,-33,69,19,1,28.25,28.17,6,1,10,0.00
2013-7-19,90,81,75,100,76,-32,68,23,1,28.17,27.98,9,2,18,0.01
2013-7-20,87,81,78,100,84,-31,73,26,3,28.00,27.89,9,2,25,0.00
2013-7-21,76,72,68,100,71,-35,53,13,1,28.21,28.08,6,1,9,0.00
2013-7-22,74,70,68,100,100,-24,0,0,100,28.22,28.10,5,1,6,0.00
2013-7-23,82,75,70,100,91,-33,19,1,1,28.10,27.76,9,2,17,0.00
2013-7-24,84,76,70,100,84,-35,69,23,1,28.10,27.78,5,0,12,0.01
2013-7-25,70,66,65,100,52,-38,55,16,1,28.25,28.10,6,1,16,0.17
2013-7-26,67,66,65,100,100,-26,0,0,100,28.21,28.05,9,1,18,1.53
2013-7-27,77,70,65,100,86,-35,69,13,2,28.27,28.21,7,1,12,0.00
2013-7-28,74,70,67,100,99,-15,3,0,3,28.25,28.15,4,0,7,0.69
2013-7-29,77,72,67,100,87,-34,32,2,1,28.25,28.19,7,1,10,0.00
2013-7-30,75,70,66,100,77,-37,84,33,1,28.29,28.21,6,0,8,0.00
2013-7-31,76,69,65,100,73,-34,82,35,1,28.32,28.26,4,0,6,0.00
2013-8-1,76,69,65,100,83,-38,83,25,1,28.27,28.11,8,2,14,0.09
2013-8-2,76,70,66,100,81,-20,73,25,3,28.11,28.00,7,1,10,0.06
2013-8-3,73,70,68,100,55,-37,73,29,1,28.06,28.00,7,2,15,0.01
2013-8-4,75,68,60,100,51,-41,86,51,1,28.05,27.98,6,0,15,0.51
2013-8-5,70,64,59,100,59,-41,87,48,1,28.23,28.05,7,1,18,0.00
2013-8-6,72,64,56,100,52,-44,86,49,1,28.37,28.23,4,0,6,0.00
2013-8-7,74,65,58,100,73,-43,87,43,1,28.40,28.34,7,1,12,0.00
2013-8-8,79,70,62,100,72,-40,78,25,1,28.35,28.26,9,2,16,0.00
2013-8-9,75,72,67,100,97,-37,1,0,1,28.29,28.00,12,4,23,0.31
2013-8-10,78,73,67,100,77,-35,82,37,13,28.20,28.00,4,0,10,0.01
2013-8-11,73,67,60,100,50,-40,88,56,1,28.27,28.19,6,1,9,0.00
2013-8-12,76,70,63,100,62,-40,79,39,1,28.24,28.14,6,1,13,0.00
2013-8-13,72,68,67,100,100,-17,0,0,100,28.14,27.88,4,0,6,0.04
2013-8-14,72,68,65,100,76,-26,86,47,2,28.13,27.86,5,0,10,0.00
2013-8-15,73,66,62,63,59,54,88,78,58,28.33,28.13,6,1,10,0.00
2013-8-16,76,68,61,66,57,9,88,69,11,28.78,28.32,8,1,13,0.00
2013-8-17,76,68,63,100,61,-40,80,37,1,29.80,28.77,3,0,6,0.00
2013-8-18,77,66,60,100,79,-41,79,29,1,30.00,28.32,4,0,7,0.07
2013-8-19,76,68,58,100,73,-43,73,31,4,29.53,28.18,5,0,10,0.01
2013-8-20,78,72,68,100,53,-37,83,50,1,28.30,28.17,4,0,7,0.00
2013-8-21,82,73,66,100,68,-38,84,41,1,28.35,28.25,6,0,12,0.00
2013-8-22,81,74,68,100,64,-36,70,33,1,28.25,28.05,7,2,13,0.00
2013-8-23,73,69,63,100,68,-40,82,41,1,28.29,28.02,8,1,20,0.00
2013-8-24,70,64,56,62,43,-27,87,56,2,28.69,28.29,7,1,15,0.00
2013-8-25,75,66,56,100,58,-43,86,48,1,28.89,28.41,4,0,8,0.00
2013-8-26,77,71,66,70,60,49,85,69,48,29.65,28.17,11,2,18,0.00
2013-8-27,72,72,72,54,54,54,54,54,54,29.61,29.61,3,3,4,0.00
2013-8-28,72,71,65,100,57,48,54,51,54,29.61,28.15,3,3,8,0.00
2013-8-29,68,65,61,100,100,44,0,0,100,28.25,28.15,6,1,13,0.00
2013-8-30,74,67,60,100,76,-36,43,7,1,28.57,28.16,6,1,13,0.00
2013-8-31,76,72,69,100,100,-34,0,0,100,29.47,28.22,7,2,13,0.00
2013-9-1,77,72,69,100,100,-36,0,0,100,29.57,28.05,7,2,15,0.01
2013-9-2,80,73,68,100,89,-37,60,3,1,28.11,27.96,8,2,17,0.00
2013-9-3,81,74,67,100,88,-36,62,7,1,28.01,27.92,9,1,13,0.02
2013-9-7,66,65,65,61,60,60,87,85,83,28.12,28.10,7,2,12,0.04
2013-9-8,66,60,55,61,56,51,89,86,83,28.26,28.04,6,1,12,0.04
2013-9-9,66,58,50,56,50,38,89,78,53,28.43,28.27,7,1,13,0.00
2013-9-10,73,65,55,66,45,6,80,52,12,28.40,28.26,10,2,21,0.00
2013-9-11,84,75,70,100,68,-35,72,23,1,32.25,28.23,7,2,13,0.00
2013-9-12,79,73,71,100,86,-35,44,5,1,30.05,29.76,10,3,20,0.00
2013-9-13,72,69,63,100,100,-40,0,0,100,29.76,29.62,8,1,14,0.00
2013-9-14,68,62,57,100,75,-42,74,21,1,30.07,29.75,4,0,10,0.00
2013-9-15,69,61,55,100,72,-25,85,47,15,30.19,30.07,5,0,10,0.03
2013-9-16,65,60,54,100,33,-45,65,28,1,30.20,30.04,7,0,15,0.03
2013-9-17,59,53,47,100,45,-45,88,71,2,30.40,30.20,9,2,17,0.20
2013-9-18,67,58,47,100,46,-48,86,47,1,30.33,30.17,6,0,9,0.00
2013-9-19,70,62,55,100,53,-45,81,37,1,30.17,30.07,4,0,9,0.00
2013-9-20,74,64,57,100,70,-37,85,37,2,30.12,30.05,6,0,8,0.00
2013-9-21,75,65,57,100,70,-43,80,29,1,30.08,29.83,10,3,17,0.00
2013-9-22,70,65,58,100,86,-41,70,7,1,29.83,29.69,10,2,15,0.00
2013-9-23,61,54,50,53,46,42,87,76,63,29.99,29.81,7,1,14,0.00
2013-9-24,61,54,48,53,44,26,88,72,39,29.99,29.85,7,0,10,0.00
2013-9-25,63,54,49,100,40,-46,86,53,1,29.98,29.88,5,0,10,0.00
2013-9-26,63,56,51,100,32,-45,85,45,1,30.11,29.97,8,1,14,0.00
2013-9-27,63,58,52,100,41,-46,80,38,1,30.26,30.10,6,1,12,0.00
2013-9-28,69,58,51,100,70,-17,83,37,3,30.32,30.25,2,0,4,0.00
2013-9-29,65,57,49,100,60,-48,80,45,1,30.86,30.14,6,0,7,0.00
2013-9-30,60,60,60,52,52,52,76,76,76,30.14,30.14,2,2,2,0.00
2013-10-1,60,60,60,52,52,52,76,76,76,30.14,30.14,2,2,2,0.00
2013-10-2,77,70,65,70,64,58,83,80,72,29.96,29.85,8,1,12,0.00
2013-10-3,72,63,58,65,57,50,81,78,76,30.10,29.96,4,0,5,0.00
2013-10-4,72,60,56,100,31,-40,81,47,1,30.10,30.05,3,0,6,0.00
2013-10-5,68,61,58,3,-2,-5,9,8,7,30.14,30.07,4,0,5,0.54
2013-10-6,62,59,57,0,-2,-4,8,8,8,30.23,30.13,7,2,12,0.00
2013-10-7,73,66,61,0,-7,-17,8,5,3,30.16,29.91,12,6,23,0.00
2013-10-8,66,59,51,0,-6,-14,11,7,4,30.36,29.91,7,1,15,0.00
2013-10-9,64,56,52,4,1,-3,12,10,8,30.45,30.36,5,1,12,0.00
2013-10-10,65,59,54,5,2,0,12,10,9,30.36,30.15,3,0,7,0.00
2013-10-11,67,60,55,5,1,-2,11,9,8,30.15,30.10,6,1,20,0.00
2013-10-12,64,58,55,3,0,-2,11,9,8,30.38,30.13,5,1,10,0.00
2013-10-13,63,54,45,4,0,-5,14,11,9,30.44,30.35,5,1,10,0.00
2013-10-14,63,50,42,10,2,-4,16,13,11,30.41,30.28,5,0,7,0.00
2013-10-15,65,54,46,12,4,0,15,13,11,30.28,30.18,5,0,7,0.00
2013-10-16,62,58,55,6,4,1,13,11,10,30.18,29.92,6,0,9,0.00
2013-10-17,71,62,57,8,3,0,11,10,8,29.92,29.78,8,1,14,0.03
2013-10-18,70,63,55,7,3,-1,11,9,7,29.92,29.67,8,2,14,0.00
2013-10-19,66,58,53,10,4,1,12,11,10,30.02,29.79,6,1,10,0.04
2013-10-20,64,57,52,7,4,1,14,12,10,30.03,29.73,7,1,14,0.00
2013-10-21,66,55,47,13,6,0,15,13,11,30.13,30.03,7,1,12,0.00
2013-10-22,71,59,48,14,8,2,16,13,10,30.05,29.73,8,1,13,0.08
2013-10-23,55,48,43,10,3,-1,17,15,13,29.80,29.59,3,0,8,0.00
2013-10-24,55,49,44,9,5,0,17,16,15,29.89,29.63,7,2,16,0.00
2013-10-25,55,48,44,11,5,1,18,17,15,30.15,29.89,7,2,13,0.00
2013-10-26,58,50,42,12,6,0,18,16,15,30.17,29.90,12,3,25,0.00
2013-10-27,60,53,47,12,7,3,17,15,14,30.06,29.83,8,2,16,0.00
2013-10-28,60,51,45,12,6,0,18,16,14,30.32,30.06,9,2,18,0.00
2013-10-29,53,42,34,12,1,-4,20,18,16,30.40,30.32,6,0,10,0.00
2013-10-30,51,43,33,9,3,-3,21,18,16,30.37,30.20,2,0,5,0.00
2013-10-31,66,55,41,14,8,-1,19,15,11,30.24,29.31,13,4,26,0.00
2013-11-1,70,65,60,12,6,1,12,10,8,29.90,29.56,18,7,36,0.00
2013-11-2,62,57,52,8,5,2,13,12,11,29.73,29.61,6,0,9,0.00
2013-11-3,54,46,40,6,1,-2,17,15,13,30.34,29.71,9,2,18,0.00
2013-11-4,47,40,37,6,0,-2,19,18,17,30.68,30.34,7,2,15,0.00
2013-11-5,53,42,36,9,2,-3,20,18,16,30.68,30.52,6,0,8,0.00
2013-11-6,60,49,37,14,6,-2,20,17,15,30.53,30.10,9,2,16,0.00
2013-11-7,64,57,45,100,5,-42,15,10,1,30.10,29.68,14,3,24,0.03
2013-11-8,52,45,41,7,1,-2,18,16,14,30.09,29.79,9,3,20,0.00
2013-11-9,48,42,39,6,2,0,19,18,17,30.19,30.09,8,2,18,0.00
2013-11-10,58,49,38,12,5,-1,19,17,15,30.09,29.73,10,2,21,0.09
2013-11-11,53,48,43,8,3,0,17,16,15,30.10,29.87,10,4,24,0.00
2013-11-12,53,39,32,6,-2,-7,19,17,14,30.18,29.91,6,2,18,0.17
2013-11-13,40,34,30,-1,-5,-8,20,19,17,30.28,30.16,9,2,18,0.01
2013-11-14,52,42,31,100,19,-7,67,43,17,30.22,30.07,16,3,18,0.00
2013-11-15,60,50,39,100,14,-44,62,26,1,30.25,30.17,8,2,15,0.00
2013-11-16,56,46,38,9,2,-4,18,16,14,30.34,30.23,5,0,10,0.01
2013-11-17,61,50,37,14,6,-2,20,17,14,30.33,29.91,11,4,15,0.16
2013-11-18,63,58,51,11,8,3,15,13,12,29.91,29.60,14,5,32,0.48
2013-11-19,52,42,35,5,1,-4,20,17,15,30.25,29.66,10,3,21,0.00
2013-11-20,45,35,28,4,-2,-7,21,20,17,30.61,30.25,8,2,22,0.00
2013-11-21,52,36,28,9,-2,-8,21,19,16,30.64,30.42,4,0,7,0.00
2013-11-22,53,46,36,8,4,-3,19,17,15,30.42,29.84,8,0,12,0.19
2013-11-23,49,44,34,5,2,-4,19,17,16,29.88,29.77,11,3,22,0.00
2013-11-24,34,28,24,-4,-8,-10,22,21,19,30.14,29.77,14,6,30,0.00
2013-11-25,33,26,22,-4,-8,-12,24,22,21,30.40,30.14,10,3,27,0.00
2013-11-26,48,41,26,5,0,-8,22,18,16,30.36,30.09,8,2,13,0.10
2013-11-27,62,54,42,11,7,-2,17,15,13,30.09,29.15,23,8,41,1.54
2013-11-28,42,35,29,0,-3,-6,21,19,16,30.44,29.44,12,4,25,0.00
2013-11-29,37,30,24,-1,-5,-11,22,21,19,30.72,30.44,6,2,16,0.00
2013-11-30,39,28,23,1,-6,-11,22,21,19,30.78,30.50,6,0,9,0.00
2013-12-1,53,43,27,8,2,-8,22,18,16,30.50,29.98,12,4,20,0.23
2013-12-2,49,43,40,4,1,-2,18,17,16,29.99,29.91,4,0,9,0.00
2013-12-3,46,42,38,4,0,-3,18,17,16,29.94,29.83,8,1,14,0.00
2013-12-4,45,38,30,2,-3,-8,20,17,16,30.23,29.93,7,1,13,0.00
2013-12-5,58,46,30,10,3,-7,20,17,14,30.25,29.97,12,4,20,0.00
2013-12-6,58,52,40,9,4,-4,16,14,13,30.15,29.90,11,3,17,0.28
2013-12-7,41,38,32,-2,-4,-7,19,16,16,30.45,30.07,6,1,14,0.45
2013-12-8,36,31,27,-3,-6,-9,21,20,19,30.60,30.45,3,0,10,0.00
2013-12-9,49,40,33,5,0,-4,20,18,16,30.49,29.85,16,5,25,0.29
2013-12-10,40,35,29,0,-3,-7,21,19,17,30.00,29.79,11,2,25,0.04
2013-12-11,35,30,28,-2,-5,-7,21,21,19,30.25,30.00,11,5,27,0.00
2013-12-12,31,25,21,-5,-8,-10,25,23,21,30.25,30.11,8,2,20,0.00
2013-12-13,32,26,21,-4,-8,-10,25,22,20,30.12,29.38,10,-562,20,0.95
2013-12-14,31,23,18,-4,-10,-13,25,23,20,29.93,29.53,0,-999,0,0.00
2013-12-15,52,36,28,7,-5,-11,20,17,14,29.78,28.67,18,-565,18,0.00
2013-12-16,35,29,24,-6,-10,-13,19,18,15,30.23,29.78,9,4,20,0.00
2013-12-17,43,29,17,-2,-10,-18,21,18,14,30.29,29.83,14,3,22,0.16
2013-12-18,39,34,31,-4,-8,-10,17,16,15,30.12,29.75,8,3,21,0.01
2013-12-19,47,37,31,3,-4,-9,17,16,15,30.15,29.99,12,3,22,0.00
2013-12-20,56,44,30,9,0,-10,17,15,13,30.17,29.98,10,3,20,0.00
2013-12-21,58,54,48,8,5,2,15,13,12,30.03,29.93,12,5,20,0.00
2013-12-22,62,55,45,9,6,-5,16,13,12,30.05,29.86,15,5,26,0.00
2013-12-23,48,44,40,-2,-5,-8,14,12,11,30.09,29.96,4,0,10,0.40
2013-12-24,41,36,29,-4,-7,-10,19,16,12,30.20,30.02,8,1,15,0.23
2013-12-25,30,24,19,-8,-11,-14,23,21,19,30.57,30.19,13,2,20,0.00
2013-12-26,43,32,21,1,-6,-12,23,19,17,30.53,30.08,13,2,20,0.23
2013-12-27,38,33,31,-2,-6,-8,19,18,17,30.29,30.21,8,3,15,0.00
2013-12-28,49,38,30,5,-2,-8,19,17,15,30.27,30.03,8,2,20,0.00
2013-12-29,57,45,38,8,0,-6,17,15,11,30.09,29.31,15,3,27,0.95
2013-12-30,45,37,26,36,-17,-56,100,13,1,30.16,29.39,7,2,20,0.00
2013-12-31,29,25,23,-8,-10,-14,21,20,18,30.19,30.05,6,1,17,0.01
2014-1-1,31,25,20,-6,-10,-13,23,21,20,30.40,30.18,8,3,20,0.00
2014-1-2,33,28,23,33,22,-12,100,87,20,30.38,29.69,10,4,20,0.00